Weather History for Louisa, VA

Change the Weather History Date:

Tuesday, April 1, 2014

  Actual Average (KCHO) Record (KCHO)
Temperature  
Mean Temperature 53 °F 51 °F  
Max Temperature 71 °F 63 °F 88 °F (1986)
Min Temperature 35 °F 40 °F 14 °F (1923)
Degree Days  
Heating Degree Days 12 14  
Month to date heating degree days 14  
Since 1 July heating degree days 4018  
Cooling Degree Days 0 0  
Month to date cooling degree days 0  
Year to date cooling degree days 2  
Growing Degree Days 3 (Base 50)    
Moisture  
Dew Point 33 °F    
Average Humidity 47    
Maximum Humidity 81    
Minimum Humidity 27    
Precipitation  
Precipitation 0.00 in 0.12 in 0.28 in (2004)
Month to date precipitation 0.12  
Year to date precipitation 9.25  
Sea Level Pressure  
Sea Level Pressure 30.06 in    
Wind  
Wind Speed 3 mph (South)    
Max Wind Speed 9 mph    
Max Gust Speed -    
Visibility 10 miles    
Events      
T = Trace of Precipitation, MM = Missing Value Source: NWS Daily Summary

Daily Weather History Graph

Daily Weather History Graph

Search for Another Location

Airport:

Trip Planner

Search our weather history database for the weather conditions in past years. The results will help you decide how hot, cold, wet, or windy it might be!

Date:

Astronomy

Apr. 01, 2014 Rise Set
Actual Time 6:57 AM EDT 7:34 PM EDT
Civil Twilight 6:30 AM EDT 8:01 PM EDT
Nautical Twilight 5:59 AM EDT 8:32 PM EDT
Astronomical Twilight 5:27 AM EDT 9:05 PM EDT
Moon 8:00 AM EDT (4/1) 9:53 PM EDT (4/1)
Length of Visible Light 13h 30m
Length of Day
12h 37m
Waxing Crescent, 4% of the Moon is Illuminated
Apr 1
Waxing Crescent
Apr 7
First Quarter
Apr 15
Full
Apr 22
Last Quarter
Apr 29
New

Hourly Weather History & Observations

Time (EDT) Temp. Dew Point Humidity Pressure Visibility Wind Dir Wind Speed Gust Speed Precip Events Conditions
12:15 AM 55.4 °F 28.4 °F 36% 30.08 in 10.0 mi NE 9.2 mph - N/A   Clear
12:35 AM 55.4 °F 28.4 °F 36% 30.08 in 10.0 mi NE 9.2 mph - N/A   Clear
12:55 AM 55.4 °F 26.6 °F 33% 30.08 in 10.0 mi NE 6.9 mph - N/A   Clear
1:15 AM 55.4 °F 26.6 °F 33% 30.09 in 10.0 mi NNE 5.8 mph - N/A   Clear
1:35 AM 55.4 °F 26.6 °F 33% 30.09 in 10.0 mi North 3.5 mph - N/A   Clear
2:15 AM 46.4 °F 30.2 °F 53% 30.09 in 10.0 mi Calm Calm - N/A   Clear
2:35 AM 44.6 °F 30.2 °F 57% 30.09 in 10.0 mi Calm Calm - N/A   Clear
2:55 AM 41.0 °F 30.2 °F 65% 30.09 in 10.0 mi Calm Calm - N/A   Clear
3:15 AM 39.2 °F 32.0 °F 75% 30.08 in 10.0 mi Calm Calm - N/A   Clear
3:35 AM 39.2 °F 32.0 °F 75% 30.08 in 10.0 mi Calm Calm - N/A   Clear
3:55 AM 37.4 °F 32.0 °F 81% 30.08 in 10.0 mi Calm Calm - N/A   Clear
4:15 AM 39.2 °F 30.2 °F 70% 30.08 in 10.0 mi Calm Calm - N/A   Clear
4:35 AM 37.4 °F 30.2 °F 75% 30.09 in 10.0 mi Calm Calm - N/A   Clear
4:55 AM 37.4 °F 30.2 °F 75% 30.10 in 10.0 mi Calm Calm - N/A   Clear
5:15 AM 35.6 °F 30.2 °F 81% 30.11 in 10.0 mi Calm Calm - N/A   Clear
5:35 AM 37.4 °F 30.2 °F 75% 30.11 in 10.0 mi Calm Calm - N/A   Clear
5:55 AM 37.4 °F 30.2 °F 75% 30.11 in 10.0 mi Calm Calm - N/A   Clear
6:15 AM 35.6 °F 30.2 °F 81% 30.12 in 10.0 mi Calm Calm - N/A   Clear
6:35 AM 35.6 °F 30.2 °F 81% 30.13 in 10.0 mi Calm Calm - N/A   Clear
6:55 AM 35.6 °F 30.2 °F 81% 30.13 in 10.0 mi Calm Calm - N/A   Clear
7:15 AM 35.6 °F 28.4 °F 75% 30.14 in 10.0 mi Calm Calm - N/A   Clear
7:35 AM 37.4 °F 28.4 °F 70% 30.15 in 10.0 mi Calm Calm - N/A   Clear
7:55 AM 39.2 °F 33.8 °F 81% 30.16 in 10.0 mi Calm Calm - N/A   Clear
8:15 AM 44.6 °F 35.6 °F 71% 30.16 in 10.0 mi Calm Calm - N/A   Clear
8:35 AM 48.2 °F 33.8 °F 58% 30.16 in 10.0 mi Calm Calm - N/A   Clear
8:55 AM 50.0 °F 32.0 °F 50% 30.17 in 10.0 mi Calm Calm - N/A   Clear
9:15 AM 50.0 °F 33.8 °F 54% 30.17 in 10.0 mi NNW 3.5 mph - N/A   Clear
9:35 AM 51.8 °F 32.0 °F 47% 30.16 in 10.0 mi Calm Calm - N/A   Clear
9:55 AM 53.6 °F 30.2 °F 41% 30.17 in 10.0 mi SSE 3.5 mph - N/A   Clear
10:15 AM 55.4 °F 30.2 °F 38% 30.16 in 10.0 mi SSE 3.5 mph - N/A   Clear
10:35 AM 55.4 °F 30.2 °F 38% 30.16 in 10.0 mi Calm Calm - N/A   Clear
10:55 AM 55.4 °F 30.2 °F 38% 30.16 in 10.0 mi Calm Calm - N/A   Clear
11:15 AM 55.4 °F 30.2 °F 38% 30.15 in 10.0 mi SW 4.6 mph - N/A   Clear
11:35 AM 55.4 °F 30.2 °F 38% 30.15 in 10.0 mi Calm Calm - N/A   Clear
11:55 AM 57.2 °F 30.2 °F 36% 30.13 in 10.0 mi SSW 4.6 mph - N/A   Clear
12:15 PM 57.2 °F 30.2 °F 36% 30.12 in 10.0 mi South 5.8 mph - N/A   Clear
12:35 PM 57.2 °F 32.0 °F 38% 30.10 in 10.0 mi SSE 3.5 mph - N/A   Scattered Clouds
12:55 PM 59.0 °F 30.2 °F 34% 30.09 in 10.0 mi SW 3.5 mph - N/A   Clear
1:15 PM 62.6 °F 32.0 °F 32% 30.08 in 10.0 mi SSW 4.6 mph - N/A   Clear
1:35 PM 64.4 °F 33.8 °F 32% 30.07 in 10.0 mi SE 6.9 mph - N/A   Clear
1:55 PM 66.2 °F 33.8 °F 30% 30.06 in 10.0 mi Calm Calm - N/A   Clear
2:15 PM 66.2 °F 32.0 °F 28% 30.05 in 10.0 mi SSW 6.9 mph - N/A   Clear
2:35 PM 66.2 °F 32.0 °F 28% 30.03 in 10.0 mi SSE 6.9 mph - N/A   Scattered Clouds
2:55 PM 66.2 °F 33.8 °F 30% 30.01 in 10.0 mi Calm Calm - N/A   Clear
3:15 PM 69.8 °F 33.8 °F 27% 30.00 in 10.0 mi SW 4.6 mph - N/A   Clear
3:35 PM 69.8 °F 33.8 °F 27% 29.99 in 10.0 mi SW 9.2 mph - N/A   Clear
3:55 PM 71.6 °F 35.6 °F 27% 29.99 in 10.0 mi SSW 4.6 mph - N/A   Clear
4:15 PM 71.6 °F 35.6 °F 27% 29.98 in 10.0 mi SSW 9.2 mph - N/A   Clear
4:35 PM 71.6 °F 35.6 °F 27% 29.98 in 10.0 mi SSW 5.8 mph - N/A   Clear
4:55 PM 71.6 °F 35.6 °F 27% 29.97 in - North - - N/A   Unknown
5:15 PM 71.6 °F 35.6 °F 27% 29.97 in 10.0 mi SSW 4.6 mph - N/A   Unknown
5:35 PM 71.6 °F 37.4 °F 29% 29.97 in 10.0 mi SSW 3.5 mph - N/A   Clear
5:55 PM 71.6 °F 35.6 °F 27% 29.96 in 10.0 mi South 5.8 mph - N/A   Clear
6:15 PM 71.6 °F 37.4 °F 29% 29.97 in 10.0 mi South 4.6 mph - N/A   Clear
6:35 PM 71.6 °F 35.6 °F 27% 29.97 in 10.0 mi South 4.6 mph - N/A   Clear
6:55 PM 69.8 °F 37.4 °F 31% 29.97 in 10.0 mi South 4.6 mph - N/A   Clear
7:15 PM 69.8 °F 37.4 °F 31% 29.98 in 10.0 mi Calm Calm - N/A   Clear
7:35 PM 64.4 °F 37.4 °F 37% 29.98 in 10.0 mi Calm Calm - N/A   Clear
7:55 PM 59.0 °F 41.0 °F 51% 29.99 in 10.0 mi Calm Calm - N/A   Clear
8:15 PM 60.8 °F 39.2 °F 45% 29.99 in 10.0 mi Calm Calm - N/A   Clear
8:35 PM 55.4 °F 39.2 °F 54% 29.99 in 10.0 mi SSE 3.5 mph - N/A   Clear
8:55 PM 57.2 °F 37.4 °F 48% 30.00 in 10.0 mi SSE 3.5 mph - N/A   Clear
9:15 PM 57.2 °F 37.4 °F 48% 30.00 in 10.0 mi SSE 4.6 mph - N/A   Clear
9:35 PM 57.2 °F 37.4 °F 48% 30.00 in 10.0 mi SE 3.5 mph - N/A   Clear
9:55 PM 57.2 °F 37.4 °F 48% 30.00 in 10.0 mi SE 4.6 mph - N/A   Clear
10:15 PM 55.4 °F 37.4 °F 51% 30.00 in 10.0 mi SE 3.5 mph - N/A   Clear
10:35 PM 59.0 °F 37.4 °F 45% 30.00 in 10.0 mi SSE 4.6 mph - N/A   Clear
10:55 PM 60.8 °F 37.4 °F 42% 30.00 in 10.0 mi SSE 4.6 mph - N/A   Clear
11:15 PM 59.0 °F 37.4 °F 45% 30.00 in 10.0 mi SSE 4.6 mph - N/A   Clear
11:35 PM 57.2 °F 37.4 °F 48% 30.00 in 10.0 mi SSE 4.6 mph - N/A   Clear
11:55 PM 51.8 °F 39.2 °F 62% 30.00 in 10.0 mi South 3.5 mph - N/A   Clear